Location: Augustenthal
(51.7167°N, 10.2833°E)
Time: 17:13:27
(UTC+00:00)

SJ 16-02 - Pass Details

Date: 18 May 2021
Orbit: 606 x 616 km, 75.0° (Epoch: 21 June)

Event Time Altitude Azimuth Distance (km) Brightness Sun altitude
Rises 21:24:10 0° 251° (WSW) 2,885 4.9 -14.5°
Reaches altitude 10° 21:27:07 10° 272° (W) 1,983 4.3 -14.7°
Maximum altitude 21:30:02 17° 313° (NW) 1,576 4.4 -14.9°
Drops below altitude 10° 21:32:58 10° 354° (N) 1,989 5.1 -15.1°
Sets 21:35:56 0° 15° (NNE) 2,898 5.6 -15.3°
